Flag for U.S.A. Weather past 2 weeks in New Orleans, Louisiana, U.S.A.

Now
82 °F

Clear.


Feels Like: 89 °F
Forecast: 76 / 92 °F
Wind: No wind

Location: Lakefront Airport

Current Time: Aug 20, 2014 at 5:48:49 AM

Latest Report: Aug 20, 2014 at 4:53 AM


Visibility: 10 mi

Pressure: 29.98 "Hg

Humidity: 82%

Dew point: 76 °F

Location of New OrleansLocation

Historic Weather in New Orleans — Graph

°F

New Orleans temperature yesterday

Maximum temperature yesterday: 92 °F (at 2:53 PM)
Minimum temperature yesterday: 81 °F (at 2:53 AM)
Average temperature yesterday: 85 °F

Past Weeks' High & Low Weather Summary

 TemperatureHumidityPressure
High93 °F (Aug 6, 3:53 PM)90% (Aug 10, 2:53 AM)30.07 "Hg (Aug 10, 2:53 AM)
Low77 °F (Aug 10, 2:53 AM)39% (Aug 14, 5:53 PM)29.87 "Hg (Aug 12, 6:53 PM)
Average84 °F71%29.98 "Hg
* Reported Aug 5 4:53 AM — Aug 20 4:53 AM, New Orleans, Weather by CustomWeather, © 2014

Note: Actual official high and low records may vary slightly from our data, if they occured in-between our weather recording intervals... More about our weather records

Advertising

New Orleans weather history for previous 24 hours

 ConditionsComfort  
Time TempWeatherWind HumidityBarometerVisibility
4:53 AM
Aug 20
82 °FClear.No wind82%29.98 "Hg10 mi
3:53 AM81 °FClear.6 mph85%29.96 "Hg10 mi
2:53 AM82 °FClear.7 mph82%29.96 "Hg10 mi
1:53 AM82 °FClear.6 mph79%29.96 "Hg10 mi
12:53 AM82 °FClear.6 mph79%29.96 "Hg10 mi
11:53 PM
Aug 19
84 °FClear.5 mph74%29.98 "Hg10 mi
10:53 PM84 °FClear.6 mph72%29.98 "Hg10 mi
9:53 PM85 °FClear.6 mph70%29.98 "Hg10 mi
8:53 PM85 °FClear.7 mph70%29.95 "Hg10 mi
7:53 PM85 °FSunny.7 mph68%29.93 "Hg10 mi
6:53 PM86 °FSunny.8 mph65%29.92 "Hg10 mi
5:53 PM85 °FSunny.7 mph68%29.94 "Hg10 mi
4:53 PM87 °FPassing clouds.7 mph67%29.94 "Hg10 mi
3:53 PM86 °FLight rain. Mostly cloudy.No wind70%29.93 "Hg8 mi
2:53 PM92 °FScattered clouds.7 mph56%29.94 "Hg10 mi
1:53 PM91 °FScattered clouds.7 mph57%29.97 "Hg10 mi
12:53 PM90 °FSunny.6 mph61%29.98 "Hg10 mi
11:53 AM88 °FSunny.9 mph70%30.00 "Hg10 mi
10:53 AM87 °FPassing clouds.6 mph69%30.01 "Hg10 mi
9:53 AM86 °FSunny.7 mph75%30.01 "Hg10 mi
8:53 AM85 °FSunny.6 mph77%30.00 "Hg10 mi
7:53 AM83 °FPassing clouds.8 mph82%29.99 "Hg9 mi
6:53 AM82 °FPassing clouds.8 mph85%29.97 "Hg9 mi
5:53 AM81 °FClear.5 mph88%29.94 "Hg9 mi
Weather by CustomWeather, © 2014

See weather overviewHow to use our weather pages